TimeBST,TemperatureF,Dew PointF,Humidity,Sea Level PressureIn,VisibilityMPH,Wind Direction,Wind SpeedMPH,Gust SpeedMPH,PrecipitationIn,Events,Conditions,WindDirDegrees,DateUTC
6:20 AM,53.6,53.6,100,30.18,1.9,NNE,4.6,-,N/A,,Overcast,20,2013-08-28 05:20:00
6:50 AM,53.6,53.6,100,30.18,1.9,Variable,3.5,-,N/A,,Overcast,0,2013-08-28 05:50:00
7:20 AM,53.6,53.6,100,30.21,1.2,Variable,2.3,-,N/A,,Overcast,0,2013-08-28 06:20:00
7:50 AM,55.4,53.6,94,30.21,1.2,Variable,2.3,-,N/A,,Overcast,0,2013-08-28 06:50:00
8:20 AM,55.4,55.4,100,30.21,3.1,Variable,2.3,-,N/A,,Overcast,0,2013-08-28 07:20:00
8:50 AM,57.2,55.4,94,30.21,3.1,Variable,2.3,-,N/A,,Mostly Cloudy,0,2013-08-28 07:50:00
9:20 AM,57.2,57.2,100,30.21,4.3,Variable,2.3,-,N/A,,Mostly Cloudy,0,2013-08-28 08:20:00
9:50 AM,59.0,55.4,88,30.21,5.6,Variable,3.5,-,N/A,,Mostly Cloudy,0,2013-08-28 08:50:00
10:20 AM,62.6,55.4,77,30.21,6.2,Calm,Calm,-,N/A,,Mostly Cloudy,0,2013-08-28 09:20:00
10:50 AM,64.4,57.2,77,30.21,5.6,Variable,1.2,-,N/A,,Partly Cloudy,0,2013-08-28 09:50:00
11:20 AM,66.2,55.4,68,30.21,6.2,Variable,1.2,-,N/A,,Partly Cloudy,0,2013-08-28 10:20:00
11:50 AM,68.0,53.6,60,30.21,6.2,Variable,2.3,-,N/A,,Partly Cloudy,0,2013-08-28 10:50:00
12:20 PM,68.0,50.0,52,30.21,6.2,Variable,3.5,-,N/A,,Partly Cloudy,0,2013-08-28 11:20:00
12:50 PM,69.8,53.6,56,30.21,6.2,Variable,1.2,-,N/A,,Partly Cloudy,0,2013-08-28 11:50:00
1:20 PM,69.8,50.0,49,30.21,6.2,Variable,2.3,-,N/A,,Partly Cloudy,0,2013-08-28 12:20:00
1:50 PM,71.6,51.8,50,30.18,6.2,Variable,2.3,-,N/A,,Partly Cloudy,0,2013-08-28 12:50:00
2:20 PM,71.6,55.4,57,30.18,6.2,Variable,3.5,-,N/A,,Partly Cloudy,0,2013-08-28 13:20:00
2:50 PM,71.6,53.6,53,30.18,6.2,Variable,2.3,-,N/A,,Partly Cloudy,0,2013-08-28 13:50:00
3:20 PM,73.4,51.8,47,30.18,6.2,Variable,2.3,-,N/A,,Partly Cloudy,0,2013-08-28 14:20:00
3:50 PM,73.4,53.6,50,30.18,6.2,Variable,3.5,-,N/A,,Scattered Clouds,0,2013-08-28 14:50:00
4:20 PM,73.4,53.6,50,30.18,6.2,Variable,1.2,-,N/A,,Scattered Clouds,0,2013-08-28 15:20:00
4:50 PM,71.6,53.6,53,30.18,6.2,Variable,1.2,-,N/A,,Scattered Clouds,0,2013-08-28 15:50:00
5:20 PM,71.6,51.8,50,30.18,6.2,Variable,1.2,-,N/A,,Scattered Clouds,0,2013-08-28 16:20:00
6:20 PM,71.6,53.6,53,30.18,-9999.0,Variable,2.3,-,N/A,,Clear,0,2013-08-28 17:20:00
6:50 PM,68.0,55.4,64,30.15,6.2,Variable,2.3,-,N/A,,Partly Cloudy,0,2013-08-28 17:50:00
7:20 PM,66.2,53.6,64,30.15,-9999.0,Variable,2.3,-,N/A,,Clear,0,2013-08-28 18:20:00
7:50 PM,64.4,53.6,68,30.15,-9999.0,ESE,3.5,-,N/A,,Clear,110,2013-08-28 18:50:00
8:20 PM,64.4,53.6,68,30.15,-9999.0,SE,2.3,-,N/A,,Clear,130,2013-08-28 19:20:00
8:50 PM,62.6,53.6,72,30.18,-9999.0,SE,3.5,-,N/A,,Clear,130,2013-08-28 19:50:00